Simultaneous Nadir Overpasses (SNOs) Predictions

Prediction of SNOs between AQUA and NOAA-19 Satellite Orbit:

Table of predicted SNOs for the next 14.0 days since TLE Epoch: 8/7/2021
Index Date (AQUA) Time (AQUA) Lat,Lon (AQUA) SZA (AQUA ) Date (NOAA-19) Time (NOAA-19) Lat,Lon (NOAA-19) SZA (NOAA-19 ) Distance(km) Time Diff (sec)
1 08/09/2021 00:36:19 -78.63, -30.75 116.30 08/09/2021 00:35:05 -78.53, -31.09 116.34 13.60 74
2 08/09/2021 01:25:46 78.62, 136.94 63.70 08/09/2021 01:25:57 78.62, 136.80 63.71 3.22 11
3 08/11/2021 06:59:29 -78.61,-126.43 115.67 08/11/2021 06:59:10 -78.62,-126.40 115.66 1.36 19
4 08/11/2021 07:48:57 78.64, 41.01 64.39 08/11/2021 07:50:04 78.65, 41.06 64.37 0.91 67
5 08/13/2021 12:33:13 78.59, -29.78 64.97 08/13/2021 12:32:13 78.59, -29.75 65.00 0.58 60
6 08/13/2021 13:22:40 -78.63, 137.64 114.96 08/13/2021 13:23:17 -78.64, 137.78 114.98 3.07 37
7 08/15/2021 18:56:23 78.58,-125.51 65.65 08/15/2021 18:56:20 78.62,-125.52 65.69 4.18 3
8 08/18/2021 00:30:05 -78.57, -28.88 113.67 08/18/2021 00:29:32 -78.58, -28.98 113.63 2.77 33
9 08/18/2021 01:19:33 78.62, 138.51 66.41 08/18/2021 01:20:27 78.61, 138.46 66.39 1.43 54
10 08/20/2021 06:03:49 78.57, 67.67 67.06 08/20/2021 06:02:36 78.55, 67.62 67.07 2.82 73



Historial Predications of SNOs between AQUA and NOAA-19
